date,time,SUV Intensity [MED/Hr],UV Index,Daily total [MED],Since Last [MED]
25/02/2022,00:05:04,0.000,0.0,0.0,0.0
25/02/2022,00:06:05,0.001,0.0,0.0,0.0
25/02/2022,00:07:05,-0.001,0.0,0.0,0.0
25/02/2022,00:08:04,0.000,0.0,0.0,0.0
25/02/2022,00:09:04,-0.001,0.0,0.0,0.0
25/02/2022,00:10:04,-0.000,0.0,0.0,0.0
25/02/2022,00:11:04,0.000,0.0,0.0,0.0
25/02/2022,00:12:04,0.000,0.0,0.0,0.0
25/02/2022,00:13:04,-0.000,0.0,0.0,0.0
25/02/2022,00:14:04,0.000,0.0,0.0,0.0
25/02/2022,00:15:05,0.000,0.0,0.0,0.0
25/02/2022,00:16:05,0.000,0.0,0.0,0.0
25/02/2022,00:17:04,0.001,0.0,0.0,0.0
25/02/2022,00:18:12,0.000,0.0,0.0,0.0
25/02/2022,00:19:04,0.000,0.0,0.0,0.0
25/02/2022,00:20:05,0.000,0.0,0.0,0.0
25/02/2022,00:21:05,0.001,0.0,0.0,0.0
25/02/2022,00:22:04,-0.000,0.0,0.0,0.0
25/02/2022,00:23:04,0.000,0.0,0.0,0.0
25/02/2022,00:24:04,-0.001,0.0,0.0,0.0
25/02/2022,00:25:04,-0.001,0.0,0.0,0.0
25/02/2022,00:26:04,0.000,0.0,0.0,0.0
25/02/2022,00:27:04,-0.000,0.0,0.0,0.0
25/02/2022,00:28:14,-0.000,0.0,0.0,0.0
25/02/2022,00:29:12,0.000,0.0,0.0,0.0
25/02/2022,00:30:04,-0.000,0.0,0.0,0.0
25/02/2022,00:31:05,-0.000,0.0,0.0,0.0
25/02/2022,00:32:04,-0.000,0.0,0.0,0.0
25/02/2022,00:33:04,0.001,0.0,0.0,0.0
25/02/2022,00:34:05,-0.000,0.0,0.0,0.0
25/02/2022,00:35:05,0.000,0.0,0.0,0.0
25/02/2022,00:36:04,0.001,0.0,0.0,0.0
25/02/2022,00:37:04,-0.001,0.0,0.0,0.0
25/02/2022,00:38:04,0.000,0.0,0.0,0.0
25/02/2022,00:39:13,-0.001,0.0,0.0,0.0
25/02/2022,00:40:04,0.000,0.0,0.0,0.0
25/02/2022,00:41:04,0.001,0.0,0.0,0.0
25/02/2022,00:42:05,-0.001,0.0,0.0,0.0
25/02/2022,00:43:04,-0.000,0.0,0.0,0.0
25/02/2022,00:44:04,0.000,0.0,0.0,0.0
25/02/2022,00:45:04,0.001,0.0,0.0,0.0
25/02/2022,00:46:04,-0.001,0.0,0.0,0.0
25/02/2022,00:47:05,-0.000,0.0,0.0,0.0
25/02/2022,00:47:56,0.001,0.0,0.0,0.0
25/02/2022,00:49:05,-0.001,0.0,0.0,0.0
25/02/2022,00:50:12,-0.000,0.0,0.0,0.0
25/02/2022,00:51:04,0.000,0.0,0.0,0.0
25/02/2022,00:52:05,0.001,0.0,0.0,0.0
25/02/2022,00:53:04,-0.000,0.0,0.0,0.0
25/02/2022,00:54:04,-0.000,0.0,0.0,0.0
25/02/2022,00:55:05,-0.001,0.0,0.0,0.0
25/02/2022,00:56:04,-0.000,0.0,0.0,0.0
25/02/2022,00:57:04,-0.000,0.0,0.0,0.0
25/02/2022,00:58:05,-0.000,0.0,0.0,0.0
25/02/2022,00:59:06,-0.000,0.0,0.0,0.0
25/02/2022,01:00:13,-0.001,0.0,0.0,0.0
25/02/2022,01:01:13,-0.000,0.0,0.0,0.0
25/02/2022,01:02:04,-0.000,0.0,0.0,0.0
25/02/2022,01:03:04,0.000,0.0,0.0,0.0
25/02/2022,01:04:04,-0.000,0.0,0.0,0.0
25/02/2022,01:05:05,-0.000,0.0,0.0,0.0
25/02/2022,01:06:05,-0.001,0.0,0.0,0.0
25/02/2022,01:07:04,-0.000,0.0,0.0,0.0
25/02/2022,01:08:04,0.001,0.0,0.0,0.0
25/02/2022,01:09:13,-0.000,0.0,0.0,0.0
25/02/2022,01:10:05,0.001,0.0,0.0,0.0
25/02/2022,01:11:13,-0.000,0.0,0.0,0.0
25/02/2022,01:12:05,-0.000,0.0,0.0,0.0
25/02/2022,01:13:04,-0.000,0.0,0.0,0.0
25/02/2022,01:14:04,0.001,0.0,0.0,0.0
25/02/2022,01:15:05,-0.000,0.0,0.0,0.0
25/02/2022,01:16:05,-0.000,0.0,0.0,0.0
25/02/2022,01:17:04,0.001,0.0,0.0,0.0
25/02/2022,01:18:04,-0.000,0.0,0.0,0.0
25/02/2022,01:19:04,-0.001,0.0,0.0,0.0
25/02/2022,01:20:04,-0.001,0.0,0.0,0.0
25/02/2022,01:21:05,-0.000,0.0,0.0,0.0
25/02/2022,01:22:04,-0.000,0.0,0.0,0.0
25/02/2022,01:23:04,-0.000,0.0,0.0,0.0
25/02/2022,01:24:04,-0.001,0.0,0.0,0.0
25/02/2022,01:25:04,-0.000,0.0,0.0,0.0
25/02/2022,01:26:04,-0.000,0.0,0.0,0.0
25/02/2022,01:27:05,-0.000,0.0,0.0,0.0
25/02/2022,01:28:04,0.001,0.0,0.0,0.0
25/02/2022,01:29:12,0.000,0.0,0.0,0.0
25/02/2022,01:30:04,-0.000,0.0,0.0,0.0
25/02/2022,01:31:04,-0.000,0.0,0.0,0.0
25/02/2022,01:32:04,-0.000,0.0,0.0,0.0
25/02/2022,01:33:05,0.001,0.0,0.0,0.0
25/02/2022,01:34:05,-0.000,0.0,0.0,0.0
25/02/2022,01:35:04,-0.000,0.0,0.0,0.0
25/02/2022,01:36:04,-0.001,0.0,0.0,0.0
25/02/2022,01:37:04,-0.001,0.0,0.0,0.0
25/02/2022,01:38:05,0.000,0.0,0.0,0.0
25/02/2022,01:39:04,-0.000,0.0,0.0,0.0
25/02/2022,01:40:04,-0.001,0.0,0.0,0.0
25/02/2022,01:41:05,-0.000,0.0,0.0,0.0
25/02/2022,01:42:05,-0.000,0.0,0.0,0.0
25/02/2022,01:43:04,0.001,0.0,0.0,0.0
25/02/2022,01:44:04,-0.000,0.0,0.0,0.0
25/02/2022,01:45:04,-0.001,0.0,0.0,0.0
25/02/2022,01:46:05,-0.000,0.0,0.0,0.0
25/02/2022,01:47:05,0.000,0.0,0.0,0.0
25/02/2022,01:48:04,-0.000,0.0,0.0,0.0
25/02/2022,01:49:04,-0.001,0.0,0.0,0.0
25/02/2022,01:50:12,-0.000,0.0,0.0,0.0
25/02/2022,01:51:05,-0.001,0.0,0.0,0.0
25/02/2022,01:52:04,-0.000,0.0,0.0,0.0
25/02/2022,01:53:04,0.000,0.0,0.0,0.0
25/02/2022,01:54:04,-0.000,0.0,0.0,0.0
25/02/2022,01:55:05,0.001,0.0,0.0,0.0
25/02/2022,01:56:05,0.000,0.0,0.0,0.0
25/02/2022,01:57:04,0.001,0.0,0.0,0.0
25/02/2022,01:58:04,-0.000,0.0,0.0,0.0
25/02/2022,01:59:05,-0.000,0.0,0.0,0.0
25/02/2022,02:00:04,0.000,0.0,0.0,0.0
25/02/2022,02:01:04,-0.001,0.0,0.0,0.0
25/02/2022,02:02:04,-0.001,0.0,0.0,0.0
25/02/2022,02:03:05,0.000,0.0,0.0,0.0
25/02/2022,02:04:04,-0.000,0.0,0.0,0.0
25/02/2022,02:05:04,0.000,0.0,0.0,0.0
25/02/2022,02:06:05,-0.001,0.0,0.0,0.0
25/02/2022,02:07:06,0.000,0.0,0.0,0.0
25/02/2022,02:08:12,-0.000,0.0,0.0,0.0
25/02/2022,02:09:04,0.000,0.0,0.0,0.0
25/02/2022,02:10:04,-0.001,0.0,0.0,0.0
25/02/2022,02:11:04,0.000,0.0,0.0,0.0
25/02/2022,02:12:05,0.000,0.0,0.0,0.0
25/02/2022,02:13:04,0.000,0.0,0.0,0.0
25/02/2022,02:14:05,0.000,0.0,0.0,0.0
25/02/2022,02:15:04,-0.000,0.0,0.0,0.0
25/02/2022,02:16:04,-0.001,0.0,0.0,0.0
25/02/2022,02:17:04,0.000,0.0,0.0,0.0
25/02/2022,02:18:04,0.001,0.0,0.0,0.0
25/02/2022,02:19:04,-0.000,0.0,0.0,0.0
25/02/2022,02:20:05,0.000,0.0,0.0,0.0
25/02/2022,02:21:05,-0.000,0.0,0.0,0.0
25/02/2022,02:22:13,-0.000,0.0,0.0,0.0
25/02/2022,02:23:05,-0.000,0.0,0.0,0.0
25/02/2022,02:24:04,0.001,0.0,0.0,0.0
25/02/2022,02:24:51,-0.000,0.0,0.0,0.0
25/02/2022,02:26:05,0.000,0.0,0.0,0.0
25/02/2022,02:27:04,-0.001,0.0,0.0,0.0
25/02/2022,02:28:04,-0.001,0.0,0.0,0.0
25/02/2022,02:29:10,-0.000,0.0,0.0,0.0
25/02/2022,02:30:13,0.000,0.0,0.0,0.0
25/02/2022,02:31:04,0.001,0.0,0.0,0.0
25/02/2022,02:32:04,0.000,0.0,0.0,0.0
25/02/2022,02:33:04,0.000,0.0,0.0,0.0
25/02/2022,02:34:04,0.001,0.0,0.0,0.0
25/02/2022,02:35:05,-0.000,0.0,0.0,0.0
25/02/2022,02:36:05,-0.001,0.0,0.0,0.0
25/02/2022,02:37:04,-0.000,0.0,0.0,0.0
25/02/2022,02:38:04,-0.000,0.0,0.0,0.0
25/02/2022,02:39:05,-0.000,0.0,0.0,0.0
25/02/2022,02:40:13,-0.000,0.0,0.0,0.0
25/02/2022,02:41:05,0.000,0.0,0.0,0.0
25/02/2022,02:42:05,-0.000,0.0,0.0,0.0
25/02/2022,02:43:21,-0.000,0.0,0.0,0.0
25/02/2022,02:45:13,-0.001,0.0,0.0,0.0
25/02/2022,02:46:05,0.000,0.0,0.0,0.0
25/02/2022,02:47:04,-0.000,0.0,0.0,0.0
25/02/2022,02:48:13,0.000,0.0,0.0,0.0
25/02/2022,02:49:05,-0.000,0.0,0.0,0.0
25/02/2022,02:50:05,-0.001,0.0,0.0,0.0
25/02/2022,02:51:06,-0.000,0.0,0.0,0.0
25/02/2022,02:52:04,0.001,0.0,0.0,0.0
25/02/2022,02:53:05,-0.001,0.0,0.0,0.0
25/02/2022,02:54:05,-0.001,0.0,0.0,0.0
25/02/2022,02:55:13,-0.000,0.0,0.0,0.0
25/02/2022,02:56:05,-0.000,0.0,0.0,0.0
25/02/2022,02:57:05,-0.001,0.0,0.0,0.0
25/02/2022,02:58:04,-0.001,0.0,0.0,0.0
25/02/2022,02:59:04,0.000,0.0,0.0,0.0
25/02/2022,03:00:05,0.001,0.0,0.0,0.0
25/02/2022,03:01:04,-0.000,0.0,0.0,0.0
25/02/2022,03:02:04,-0.000,0.0,0.0,0.0
25/02/2022,03:03:05,-0.000,0.0,0.0,0.0
25/02/2022,03:04:05,-0.001,0.0,0.0,0.0
25/02/2022,03:05:04,0.000,0.0,0.0,0.0
25/02/2022,03:06:04,-0.000,0.0,0.0,0.0
25/02/2022,03:07:05,-0.001,0.0,0.0,0.0
25/02/2022,03:08:05,-0.000,0.0,0.0,0.0
25/02/2022,03:09:13,-0.000,0.0,0.0,0.0
25/02/2022,03:10:04,-0.000,0.0,0.0,0.0
25/02/2022,03:11:04,-0.000,0.0,0.0,0.0
25/02/2022,03:12:05,0.001,0.0,0.0,0.0
25/02/2022,03:13:05,0.001,0.0,0.0,0.0
25/02/2022,03:14:04,-0.000,0.0,0.0,0.0
25/02/2022,03:15:04,0.000,0.0,0.0,0.0
25/02/2022,03:16:05,-0.000,0.0,0.0,0.0
25/02/2022,03:17:04,0.000,0.0,0.0,0.0
25/02/2022,03:18:05,-0.001,0.0,0.0,0.0
25/02/2022,03:18:56,-0.001,0.0,0.0,0.0
25/02/2022,03:20:05,-0.000,0.0,0.0,0.0
25/02/2022,03:21:05,-0.001,0.0,0.0,0.0
25/02/2022,03:22:05,0.000,0.0,0.0,0.0
25/02/2022,03:23:04,-0.000,0.0,0.0,0.0
25/02/2022,03:24:05,-0.000,0.0,0.0,0.0
25/02/2022,03:25:05,0.001,0.0,0.0,0.0
25/02/2022,03:26:04,0.000,0.0,0.0,0.0
25/02/2022,03:27:13,0.000,0.0,0.0,0.0
25/02/2022,03:28:05,0.001,0.0,0.0,0.0
25/02/2022,03:29:04,0.001,0.0,0.0,0.0
25/02/2022,03:30:04,0.000,0.0,0.0,0.0
25/02/2022,03:31:05,-0.001,0.0,0.0,0.0
25/02/2022,03:32:05,-0.001,0.0,0.0,0.0
25/02/2022,03:33:04,0.001,0.0,0.0,0.0
25/02/2022,03:34:05,0.000,0.0,0.0,0.0
25/02/2022,03:35:13,0.000,0.0,0.0,0.0
25/02/2022,03:36:05,-0.000,0.0,0.0,0.0
25/02/2022,03:37:04,-0.000,0.0,0.0,0.0
25/02/2022,03:38:04,-0.001,0.0,0.0,0.0
25/02/2022,03:39:05,-0.001,0.0,0.0,0.0
25/02/2022,03:40:05,-0.000,0.0,0.0,0.0
25/02/2022,03:41:04,0.000,0.0,0.0,0.0
25/02/2022,03:42:04,0.000,0.0,0.0,0.0
25/02/2022,03:43:05,-0.001,0.0,0.0,0.0
25/02/2022,03:44:05,-0.001,0.0,0.0,0.0
25/02/2022,03:45:13,-0.000,0.0,0.0,0.0
25/02/2022,03:46:05,-0.001,0.0,0.0,0.0
25/02/2022,03:47:08,0.000,0.0,0.0,0.0
25/02/2022,03:48:04,-0.000,0.0,0.0,0.0
25/02/2022,03:49:05,-0.000,0.0,0.0,0.0
25/02/2022,03:50:05,-0.001,0.0,0.0,0.0
25/02/2022,03:51:05,-0.000,0.0,0.0,0.0
25/02/2022,03:52:13,0.000,0.0,0.0,0.0
25/02/2022,03:53:04,-0.000,0.0,0.0,0.0
25/02/2022,03:54:05,-0.001,0.0,0.0,0.0
25/02/2022,03:55:05,-0.000,0.0,0.0,0.0
25/02/2022,03:56:05,0.000,0.0,0.0,0.0
25/02/2022,03:57:04,-0.000,0.0,0.0,0.0
25/02/2022,03:57:56,-0.000,0.0,0.0,0.0
25/02/2022,03:59:05,-0.000,0.0,0.0,0.0
25/02/2022,04:00:13,-0.001,0.0,0.0,0.0
25/02/2022,04:01:05,-0.001,0.0,0.0,0.0
25/02/2022,04:02:05,-0.001,0.0,0.0,0.0
25/02/2022,04:03:04,-0.001,0.0,0.0,0.0
25/02/2022,04:04:04,-0.000,0.0,0.0,0.0
25/02/2022,04:05:05,0.000,0.0,0.0,0.0
25/02/2022,04:06:04,-0.000,0.0,0.0,0.0
25/02/2022,04:07:05,0.000,0.0,0.0,0.0
25/02/2022,04:08:22,-0.000,0.0,0.0,0.0
25/02/2022,04:10:05,-0.001,0.0,0.0,0.0
25/02/2022,04:11:05,-0.001,0.0,0.0,0.0
25/02/2022,04:12:04,0.000,0.0,0.0,0.0
25/02/2022,04:13:04,-0.000,0.0,0.0,0.0
25/02/2022,04:14:12,-0.000,0.0,0.0,0.0
25/02/2022,04:15:04,-0.000,0.0,0.0,0.0
25/02/2022,04:16:05,-0.000,0.0,0.0,0.0
25/02/2022,04:17:05,0.000,0.0,0.0,0.0
25/02/2022,04:18:05,-0.000,0.0,0.0,0.0
25/02/2022,04:19:05,-0.000,0.0,0.0,0.0
25/02/2022,04:20:05,-0.000,0.0,0.0,0.0
25/02/2022,04:21:05,0.000,0.0,0.0,0.0
25/02/2022,04:22:05,-0.000,0.0,0.0,0.0
25/02/2022,04:23:05,-0.000,0.0,0.0,0.0
25/02/2022,04:24:04,0.000,0.0,0.0,0.0
25/02/2022,04:25:04,-0.000,0.0,0.0,0.0
25/02/2022,04:26:05,0.000,0.0,0.0,0.0
25/02/2022,04:27:05,0.000,0.0,0.0,0.0
25/02/2022,04:28:04,-0.000,0.0,0.0,0.0
25/02/2022,04:29:13,-0.000,0.0,0.0,0.0
25/02/2022,04:30:04,0.000,0.0,0.0,0.0
25/02/2022,04:31:04,-0.000,0.0,0.0,0.0
25/02/2022,04:32:05,-0.000,0.0,0.0,0.0
25/02/2022,04:33:05,0.000,0.0,0.0,0.0
25/02/2022,04:34:04,0.000,0.0,0.0,0.0
25/02/2022,04:35:04,0.001,0.0,0.0,0.0
25/02/2022,04:36:05,0.000,0.0,0.0,0.0
25/02/2022,04:37:05,-0.000,0.0,0.0,0.0
25/02/2022,04:38:04,0.000,0.0,0.0,0.0
25/02/2022,04:39:05,0.000,0.0,0.0,0.0
25/02/2022,04:40:05,0.000,0.0,0.0,0.0
25/02/2022,04:41:05,-0.000,0.0,0.0,0.0
25/02/2022,04:42:04,-0.000,0.0,0.0,0.0
25/02/2022,04:43:04,-0.000,0.0,0.0,0.0
25/02/2022,04:44:05,-0.000,0.0,0.0,0.0
25/02/2022,04:45:05,-0.001,0.0,0.0,0.0
25/02/2022,04:47:05,0.000,0.0,0.0,0.0
25/02/2022,04:48:05,-0.001,0.0,0.0,0.0
25/02/2022,04:49:04,-0.000,0.0,0.0,0.0
25/02/2022,04:50:04,-0.001,0.0,0.0,0.0
25/02/2022,04:51:05,0.001,0.0,0.0,0.0
25/02/2022,04:52:05,0.001,0.0,0.0,0.0
25/02/2022,04:53:04,0.000,0.0,0.0,0.0
25/02/2022,04:54:05,-0.001,0.0,0.0,0.0
25/02/2022,04:55:05,-0.001,0.0,0.0,0.0
25/02/2022,04:56:06,0.001,0.0,0.0,0.0
25/02/2022,04:57:05,-0.000,0.0,0.0,0.0
25/02/2022,04:58:13,0.000,0.0,0.0,0.0
25/02/2022,04:59:05,0.001,0.0,0.0,0.0
25/02/2022,05:00:04,0.000,0.0,0.0,0.0
25/02/2022,05:01:13,-0.000,0.0,0.0,0.0
25/02/2022,05:02:21,0.000,0.0,0.0,0.0
25/02/2022,05:04:22,0.000,0.0,0.0,0.0
25/02/2022,05:06:05,0.000,0.0,0.0,0.0
25/02/2022,05:07:05,0.000,0.0,0.0,0.0
25/02/2022,05:08:05,-0.001,0.0,0.0,0.0
25/02/2022,05:09:04,0.000,0.0,0.0,0.0
25/02/2022,05:10:05,0.001,0.0,0.0,0.0
25/02/2022,05:11:05,0.000,0.0,0.0,0.0
25/02/2022,05:12:05,-0.001,0.0,0.0,0.0
25/02/2022,05:13:05,0.000,0.0,0.0,0.0
25/02/2022,05:14:05,0.000,0.0,0.0,0.0
25/02/2022,05:15:05,-0.000,0.0,0.0,0.0
25/02/2022,05:16:13,-0.000,0.0,0.0,0.0
25/02/2022,05:17:04,0.000,0.0,0.0,0.0
25/02/2022,05:18:04,0.000,0.0,0.0,0.0
25/02/2022,05:19:05,0.000,0.0,0.0,0.0
25/02/2022,05:20:04,0.000,0.0,0.0,0.0
25/02/2022,05:21:05,-0.000,0.0,0.0,0.0
25/02/2022,05:22:05,-0.001,0.0,0.0,0.0
25/02/2022,05:23:05,-0.000,0.0,0.0,0.0
25/02/2022,05:24:04,-0.000,0.0,0.0,0.0
25/02/2022,05:25:07,0.000,0.0,0.0,0.0
25/02/2022,05:26:04,-0.000,0.0,0.0,0.0
25/02/2022,05:27:13,0.000,0.0,0.0,0.0
25/02/2022,05:28:05,-0.000,0.0,0.0,0.0
25/02/2022,05:29:05,0.001,0.0,0.0,0.0
25/02/2022,05:30:04,-0.000,0.0,0.0,0.0
25/02/2022,05:31:05,0.000,0.0,0.0,0.0
25/02/2022,05:32:05,0.000,0.0,0.0,0.0
25/02/2022,05:33:06,0.001,0.0,0.0,0.0
25/02/2022,05:34:05,0.000,0.0,0.0,0.0
25/02/2022,05:35:05,0.001,0.0,0.0,0.0
25/02/2022,05:36:05,0.000,0.0,0.0,0.0
25/02/2022,05:37:13,0.000,0.0,0.0,0.0
25/02/2022,05:38:13,0.001,0.0,0.0,0.0
25/02/2022,05:39:05,0.000,0.0,0.0,0.0
25/02/2022,05:40:05,0.000,0.0,0.0,0.0
25/02/2022,05:41:05,-0.000,0.0,0.0,0.0
25/02/2022,05:42:05,0.000,0.0,0.0,0.0
25/02/2022,05:43:04,0.001,0.0,0.0,0.0
25/02/2022,05:44:05,0.000,0.0,0.0,0.0
25/02/2022,05:45:13,-0.000,0.0,0.0,0.0
25/02/2022,05:46:05,0.000,0.0,0.0,0.0
25/02/2022,05:47:05,-0.001,0.0,0.0,0.0
25/02/2022,05:48:05,0.000,0.0,0.0,0.0
25/02/2022,05:49:04,0.000,0.0,0.0,0.0
25/02/2022,05:50:04,0.000,0.0,0.0,0.0
25/02/2022,05:51:05,-0.000,0.0,0.0,0.0
25/02/2022,05:52:05,-0.001,0.0,0.0,0.0
25/02/2022,05:53:13,0.000,0.0,0.0,0.0
25/02/2022,05:54:04,0.000,0.0,0.0,0.0
25/02/2022,05:55:05,0.000,0.0,0.0,0.0
25/02/2022,05:56:05,0.000,0.0,0.0,0.0
25/02/2022,05:57:04,0.000,0.0,0.0,0.0
25/02/2022,05:58:05,0.000,0.0,0.0,0.0
25/02/2022,05:59:05,0.000,0.0,0.0,0.0
25/02/2022,06:00:05,-0.000,0.0,0.0,0.0
25/02/2022,06:01:21,-0.000,0.0,0.0,0.0
25/02/2022,06:03:06,0.000,0.0,0.0,0.0
25/02/2022,06:04:13,-0.001,0.0,0.0,0.0
25/02/2022,06:05:12,-0.000,0.0,0.0,0.0
25/02/2022,06:06:05,-0.001,0.0,0.0,0.0
25/02/2022,06:07:05,-0.000,0.0,0.0,0.0
25/02/2022,06:08:04,0.000,0.0,0.0,0.0
25/02/2022,06:09:05,-0.000,0.0,0.0,0.0
25/02/2022,06:10:05,0.001,0.0,0.0,0.0
25/02/2022,06:11:04,-0.000,0.0,0.0,0.0
25/02/2022,06:12:05,-0.000,0.0,0.0,0.0
25/02/2022,06:13:05,-0.001,0.0,0.0,0.0
25/02/2022,06:14:13,0.001,0.0,0.0,0.0
25/02/2022,06:15:05,-0.000,0.0,0.0,0.0
25/02/2022,06:16:05,-0.000,0.0,0.0,0.0
25/02/2022,06:17:05,-0.000,0.0,0.0,0.0
25/02/2022,06:18:04,0.001,0.0,0.0,0.0
25/02/2022,06:19:05,0.000,0.0,0.0,0.0
25/02/2022,06:20:05,0.000,0.0,0.0,0.0
25/02/2022,06:21:05,0.001,0.0,0.0,0.0
25/02/2022,06:22:05,0.001,0.0,0.0,0.0
25/02/2022,06:23:04,0.000,0.0,0.0,0.0
25/02/2022,06:24:05,0.001,0.0,0.0,0.0
25/02/2022,06:25:05,-0.000,0.0,0.0,0.0
25/02/2022,06:26:05,-0.000,0.0,0.0,0.0
25/02/2022,06:27:05,0.000,0.0,0.0,0.0
25/02/2022,06:28:05,-0.001,0.0,0.0,0.0
25/02/2022,06:29:13,0.000,0.0,0.0,0.0
25/02/2022,06:30:04,0.001,0.0,0.0,0.0
25/02/2022,06:31:14,0.000,0.0,0.0,0.0
25/02/2022,06:32:05,-0.000,0.0,0.0,0.0
25/02/2022,06:33:05,0.000,0.0,0.0,0.0
25/02/2022,06:34:05,-0.001,0.0,0.0,0.0
25/02/2022,06:35:04,0.000,0.0,0.0,0.0
25/02/2022,06:36:05,-0.001,0.0,0.0,0.0
25/02/2022,06:37:05,0.000,0.0,0.0,0.0
25/02/2022,06:38:05,0.000,0.0,0.0,0.0
25/02/2022,06:39:05,0.000,0.0,0.0,0.0
25/02/2022,06:40:13,0.000,0.0,0.0,0.0
25/02/2022,06:41:05,0.000,0.0,0.0,0.0
25/02/2022,06:42:05,0.000,0.0,0.0,0.0
25/02/2022,06:43:05,-0.001,0.0,0.0,0.0
25/02/2022,06:44:05,0.000,0.0,0.0,0.0
25/02/2022,06:45:04,-0.000,0.0,0.0,0.0
25/02/2022,06:46:05,0.000,0.0,0.0,0.0
25/02/2022,06:47:05,0.001,0.0,0.0,0.0
25/02/2022,06:48:13,0.000,0.0,0.0,0.0
25/02/2022,06:49:05,0.001,0.0,0.0,0.0
25/02/2022,06:50:05,0.000,0.0,0.0,0.0
25/02/2022,06:51:05,0.002,0.0,0.0,0.0
25/02/2022,06:52:04,0.001,0.0,0.0,0.0
25/02/2022,06:53:05,0.001,0.0,0.0,0.0
25/02/2022,06:54:05,0.002,0.0,0.0,0.0
25/02/2022,06:55:05,0.001,0.0,0.0,0.0
25/02/2022,06:56:05,0.001,0.0,0.0,0.0
25/02/2022,06:57:05,0.001,0.0,0.0,0.0
25/02/2022,06:58:14,0.001,0.0,0.0,0.0
25/02/2022,06:59:03,0.002,0.0,0.0,0.0
25/02/2022,07:00:05,0.000,0.0,0.0,0.0
25/02/2022,07:01:05,0.002,0.0,0.0,0.0
25/02/2022,07:02:05,0.002,0.0,0.0,0.0
25/02/2022,07:04:06,0.002,0.0,0.0,0.0
25/02/2022,07:05:05,0.002,0.0,0.0,0.0
25/02/2022,07:06:05,0.002,0.0,0.0,0.0
25/02/2022,07:07:05,0.004,0.0,0.0,0.0
25/02/2022,07:08:06,0.003,0.0,0.0,0.0
25/02/2022,07:09:13,0.003,0.0,0.0,0.0
25/02/2022,07:10:05,0.003,0.0,0.0,0.0
25/02/2022,07:11:05,0.003,0.0,0.0,0.0
25/02/2022,07:12:06,0.004,0.0,0.0,0.0
25/02/2022,07:13:05,0.004,0.0,0.0,0.0
25/02/2022,07:14:06,0.005,0.0,0.0,0.0
25/02/2022,07:15:05,0.004,0.0,0.0,0.0
25/02/2022,07:16:05,0.004,0.0,0.0,0.0
25/02/2022,07:17:05,0.006,0.0,0.0,0.0
25/02/2022,07:18:05,0.005,0.0,0.0,0.0
25/02/2022,07:19:05,0.005,0.0,0.0,0.0
25/02/2022,07:20:05,0.006,0.0,0.0,0.0
25/02/2022,07:21:05,0.006,0.0,0.0,0.0
25/02/2022,07:22:05,0.006,0.0,0.0,0.0
25/02/2022,07:23:05,0.006,0.0,0.0,0.0
25/02/2022,07:24:14,0.007,0.0,0.0,0.0
25/02/2022,07:25:04,0.007,0.0,0.0,0.0
25/02/2022,07:26:05,0.008,0.0,0.001,0.001
25/02/2022,07:27:05,0.009,0.0,0.001,0.0
25/02/2022,07:28:05,0.009,0.0,0.001,0.0
25/02/2022,07:29:05,0.009,0.0,0.001,0.0
25/02/2022,07:30:05,0.009,0.0,0.001,0.0
25/02/2022,07:31:05,0.010,0.0,0.001,0.0
25/02/2022,07:32:13,0.009,0.0,0.001,0.0
25/02/2022,07:33:05,0.010,0.0,0.002,0.001
25/02/2022,07:34:05,0.010,0.0,0.002,0.0
25/02/2022,07:35:05,0.011,0.0,0.002,0.0
25/02/2022,07:36:05,0.011,0.0,0.002,0.0
25/02/2022,07:37:05,0.011,0.0,0.002,0.0
25/02/2022,07:38:05,0.012,0.0,0.002,0.0
25/02/2022,07:39:05,0.013,0.0,0.003,0.001
25/02/2022,07:40:05,0.013,0.0,0.003,0.0
25/02/2022,07:41:05,0.013,0.0,0.003,0.0
25/02/2022,07:42:14,0.014,0.0,0.003,0.0
25/02/2022,07:43:14,0.014,0.0,0.004,0.001
25/02/2022,07:44:05,0.015,0.0,0.004,0.0
25/02/2022,07:45:05,0.015,0.0,0.004,0.0
25/02/2022,07:46:05,0.016,0.0,0.004,0.0
25/02/2022,07:47:06,0.016,0.0,0.005,0.001
25/02/2022,07:48:05,0.017,0.0,0.005,0.0
25/02/2022,07:49:05,0.017,0.0,0.005,0.0
25/02/2022,07:50:05,0.018,0.0,0.005,0.0
25/02/2022,07:51:05,0.019,0.0,0.006,0.001
25/02/2022,07:52:05,0.019,0.0,0.006,0.0
25/02/2022,07:53:13,0.020,0.0,0.006,0.0
25/02/2022,07:54:05,0.022,0.0,0.007,0.001
25/02/2022,07:55:05,0.021,0.0,0.007,0.0
25/02/2022,07:56:05,0.023,0.0,0.007,0.0
25/02/2022,07:57:05,0.023,0.0,0.008,0.001
25/02/2022,07:58:05,0.023,0.0,0.008,0.0
25/02/2022,07:59:05,0.024,0.0,0.009,0.001
25/02/2022,08:01:10,0.026,0.0,0.009,0.0
25/02/2022,08:02:05,0.026,0.0,0.01,0.001
25/02/2022,08:03:05,0.027,0.0,0.01,0.0
25/02/2022,08:04:08,0.028,0.0,0.011,0.001
25/02/2022,08:05:05,0.028,0.0,0.011,0.0
25/02/2022,08:06:05,0.029,0.0,0.012,0.001
25/02/2022,08:07:05,0.030,0.0,0.012,0.0
25/02/2022,08:08:05,0.031,0.0,0.013,0.001
25/02/2022,08:09:05,0.032,0.0,0.013,0.0
25/02/2022,08:10:05,0.033,0.0,0.014,0.001
25/02/2022,08:11:05,0.034,0.0,0.014,0.0
25/02/2022,08:12:05,0.035,0.0,0.015,0.001
25/02/2022,08:13:06,0.036,0.0,0.015,0.0
25/02/2022,08:14:05,0.036,0.0,0.016,0.001
25/02/2022,08:15:05,0.036,0.0,0.017,0.001
25/02/2022,08:16:14,0.038,0.0,0.017,0.0
25/02/2022,08:17:05,0.039,0.0,0.018,0.001
25/02/2022,08:18:05,0.040,0.0,0.019,0.001
25/02/2022,08:19:05,0.042,0.0,0.019,0.0
25/02/2022,08:20:05,0.042,0.0,0.02,0.001
25/02/2022,08:21:05,0.043,0.0,0.021,0.001
25/02/2022,08:22:05,0.044,0.0,0.021,0.0
25/02/2022,08:23:05,0.046,0.0,0.022,0.001
25/02/2022,08:24:05,0.047,0.0,0.023,0.001
25/02/2022,08:25:05,0.048,0.0,0.024,0.001
25/02/2022,08:26:05,0.049,0.0,0.025,0.001
25/02/2022,08:27:05,0.051,0.0,0.025,0.0
25/02/2022,08:28:05,0.052,0.0,0.026,0.001
25/02/2022,08:29:05,0.053,0.0,0.027,0.001
25/02/2022,08:30:14,0.054,0.0,0.028,0.001
25/02/2022,08:31:05,0.055,0.0,0.029,0.001
25/02/2022,08:32:06,0.055,0.0,0.03,0.001
25/02/2022,08:33:05,0.057,0.0,0.031,0.001
25/02/2022,08:34:05,0.058,0.0,0.032,0.001
25/02/2022,08:35:05,0.059,0.0,0.033,0.001
25/02/2022,08:36:05,0.061,0.0,0.034,0.001
25/02/2022,08:37:05,0.063,0.0,0.035,0.001
25/02/2022,08:38:05,0.064,0.0,0.036,0.001
25/02/2022,08:39:05,0.065,0.0,0.037,0.001
25/02/2022,08:40:05,0.067,0.0,0.038,0.001
25/02/2022,08:41:05,0.068,0.0,0.039,0.001
25/02/2022,08:42:05,0.070,0.0,0.04,0.001
25/02/2022,08:43:05,0.072,0.0,0.041,0.001
25/02/2022,08:44:05,0.072,0.0,0.043,0.002
25/02/2022,08:45:13,0.074,0.0,0.044,0.001
25/02/2022,08:46:05,0.075,0.0,0.045,0.001
25/02/2022,08:47:05,0.077,0.0,0.046,0.001
25/02/2022,08:48:14,0.079,0.0,0.048,0.002
25/02/2022,08:49:03,0.080,0.0,0.049,0.001
25/02/2022,08:50:05,0.082,0.0,0.05,0.001
25/02/2022,08:51:06,0.083,0.0,0.052,0.002
25/02/2022,08:52:05,0.086,0.0,0.053,0.001
25/02/2022,08:53:05,0.086,0.0,0.054,0.001
25/02/2022,08:54:05,0.089,0.0,0.056,0.002
25/02/2022,08:55:05,0.090,0.0,0.057,0.001
25/02/2022,08:56:05,0.091,0.0,0.059,0.002
25/02/2022,08:57:05,0.092,0.0,0.06,0.001
25/02/2022,08:58:06,0.094,0.0,0.062,0.002
25/02/2022,08:59:05,0.096,0.0,0.064,0.002
25/02/2022,09:00:05,0.098,0.0,0.065,0.001
25/02/2022,09:01:06,0.099,0.0,0.067,0.002
25/02/2022,09:02:05,0.101,0.0,0.068,0.001
25/02/2022,09:03:05,0.103,0.0,0.07,0.002
25/02/2022,09:04:05,0.105,0.0,0.072,0.002
25/02/2022,09:05:05,0.108,0.0,0.074,0.002
25/02/2022,09:06:06,0.108,0.0,0.075,0.001
25/02/2022,09:07:06,0.111,0.0,0.077,0.002
25/02/2022,09:08:05,0.112,0.0,0.079,0.002
25/02/2022,09:09:05,0.113,0.0,0.081,0.002
25/02/2022,09:10:13,0.116,0.0,0.083,0.002
25/02/2022,09:11:05,0.118,0.0,0.085,0.002
25/02/2022,09:12:05,0.120,0.0,0.087,0.002
25/02/2022,09:13:14,0.122,0.0,0.089,0.002
25/02/2022,09:14:05,0.123,0.0,0.091,0.002
25/02/2022,09:15:05,0.125,0.0,0.093,0.002
25/02/2022,09:16:05,0.128,0.0,0.095,0.002
25/02/2022,09:17:05,0.130,0.0,0.097,0.002
25/02/2022,09:18:05,0.131,0.0,0.099,0.002
25/02/2022,09:19:05,0.134,0.0,0.102,0.003
25/02/2022,09:20:05,0.136,0.0,0.104,0.002
25/02/2022,09:22:06,0.141,0.0,0.108,0.004
25/02/2022,09:23:05,0.140,0.0,0.111,0.003
25/02/2022,09:24:05,0.142,0.0,0.113,0.002
25/02/2022,09:25:06,0.146,0.0,0.116,0.003
25/02/2022,09:26:07,0.148,0.0,0.118,0.002
25/02/2022,09:27:05,0.151,0.0,0.12,0.002
25/02/2022,09:28:14,0.153,0.0,0.123,0.003
25/02/2022,09:29:05,0.154,0.0,0.126,0.003
25/02/2022,09:30:05,0.157,0.0,0.128,0.002
25/02/2022,09:31:05,0.159,0.0,0.131,0.003
25/02/2022,09:32:05,0.160,0.0,0.134,0.003
25/02/2022,09:33:05,0.163,0.0,0.136,0.002
25/02/2022,09:34:05,0.165,0.0,0.139,0.003
25/02/2022,09:35:05,0.167,0.0,0.142,0.003
25/02/2022,09:36:06,0.169,0.0,0.145,0.003
25/02/2022,09:37:05,0.172,0.0,0.147,0.002
25/02/2022,09:38:06,0.174,0.0,0.15,0.003
25/02/2022,09:39:14,0.177,0.0,0.154,0.004
25/02/2022,09:40:05,0.179,0.0,0.156,0.002
25/02/2022,09:41:05,0.181,0.0,0.159,0.003
25/02/2022,09:42:05,0.183,0.0,0.162,0.003
25/02/2022,09:43:06,0.185,0.0,0.165,0.003
25/02/2022,09:44:05,0.187,0.0,0.168,0.003
25/02/2022,09:45:05,0.190,0.0,0.172,0.004
25/02/2022,09:46:05,0.192,0.0,0.175,0.003
25/02/2022,09:47:06,0.195,0.0,0.178,0.003
25/02/2022,09:48:06,0.196,0.0,0.181,0.003
25/02/2022,09:49:14,0.199,0.0,0.185,0.004
25/02/2022,09:49:52,0.202,0.0,0.187,0.002
25/02/2022,09:51:06,0.204,0.0,0.191,0.004
25/02/2022,09:52:06,0.206,0.0,0.195,0.004
25/02/2022,09:53:05,0.208,0.0,0.198,0.003
25/02/2022,09:54:05,0.210,0.0,0.201,0.003
25/02/2022,09:55:05,0.212,0.0,0.205,0.004
25/02/2022,09:56:06,0.215,0.0,0.209,0.004
25/02/2022,09:57:05,0.217,0.0,0.212,0.003
25/02/2022,09:58:05,0.220,1.0,0.216,0.004
25/02/2022,09:59:05,0.222,1.0,0.219,0.003
25/02/2022,10:00:06,0.224,1.0,0.223,0.004
25/02/2022,10:01:05,0.226,1.0,0.227,0.004
25/02/2022,10:02:05,0.228,1.0,0.231,0.004
25/02/2022,10:03:05,0.231,1.0,0.234,0.003
25/02/2022,10:04:05,0.232,1.0,0.238,0.004
25/02/2022,10:05:06,0.235,1.0,0.242,0.004
25/02/2022,10:06:05,0.239,1.0,0.246,0.004
25/02/2022,10:07:13,0.242,1.0,0.251,0.005
25/02/2022,10:08:05,0.244,1.0,0.254,0.003
25/02/2022,10:09:05,0.245,1.0,0.258,0.004
25/02/2022,10:10:14,0.249,1.0,0.263,0.005
25/02/2022,10:11:04,0.251,1.0,0.267,0.004
25/02/2022,10:12:57,0.254,1.0,0.275,0.008
25/02/2022,10:14:05,0.253,1.0,0.279,0.004
25/02/2022,10:15:05,0.255,1.0,0.283,0.004
25/02/2022,10:16:05,0.253,1.0,0.288,0.005
25/02/2022,10:17:05,0.263,1.0,0.292,0.004
25/02/2022,10:18:05,0.266,1.0,0.296,0.004
25/02/2022,10:19:06,0.269,1.0,0.301,0.005
25/02/2022,10:20:05,0.271,1.0,0.305,0.004
25/02/2022,10:21:14,0.275,1.0,0.31,0.005